FW5669 Weather Reports


time (UTC)temp
C
wind
direction
speed
KPH
gust
KPH
rain 1hr
cm
rain 24hr
cm
rain mn
cm
humidity
%
barometer
mb
20260906103104 13 326 0.0 1.6 0.00 0.00 0.00 72 1015.1
20260906101600 14 326 0.0 3.2 0.00 0.00 0.00 72 1015.2
20260906100100 14 2 0.0 3.2 0.00 0.00 0.00 71 1015.3
20260906094600 14 7 0.0 3.2 0.00 0.00 0.00 71 1015.2
20260906093121 14 343 0.0 6.4 0.00 0.00 0.00 70 1015.2
20260906091600 14 19 3.2 6.4 0.00 0.00 0.00 71 1015.3
20260906090100 14 49 1.6 8.0 0.00 0.00 0.00 72 1015.4
20260906084600 13 23 1.6 6.4 0.00 0.00 0.00 74 1015.4
20260906084501 13 54 1.6 6.4 0.00 0.00 0.00 74 1015.5
20260906083102 13 41 0.0 4.8 0.00 0.00 0.00 75 1015.6
20260906081600 13 43 0.0 0.0 0.00 0.00 0.00 76 1015.6
20260906080104 13 46 0.0 1.6 0.00 0.00 0.00 77 1015.6
20260906080002 13 30 0.0 1.6 0.00 0.00 0.00 77 1015.6
20260906074503 12 47 0.0 3.2 0.00 0.00 0.00 78 1015.7
20260906073001 12 47 0.0 1.6 0.00 0.00 0.00 78 1015.7
20260906071501 12 47 0.0 3.2 0.00 0.00 0.00 78 1015.8
20260906070002 13 47 0.0 0.0 0.00 0.00 0.00 78 1016.0
20260906064502 13 47 0.0 0.0 0.00 0.00 0.00 77 1015.9
20260906063003 13 47 0.0 0.0 0.00 0.00 0.00 76 1016.0
20260906061502 13 47 0.0 3.2 0.00 0.00 0.00 75 1016.1
20260906060005 14 47 0.0 1.6 0.00 0.00 0.00 73 1016.0
20260906054503 15 47 0.0 3.2 0.00 0.00 0.00 70 1015.9
20260906053002 15 47 0.0 0.0 0.00 0.00 0.00 67 1015.8
20260906051502 15 47 0.0 3.2 0.00 0.00 0.00 67 1015.8
20260906050001 15 30 0.0 3.2 0.00 0.00 0.00 67 1015.8
20260906044502 15 44 0.0 1.6 0.00 0.00 0.00 68 1015.7
20260906043001 16 44 0.0 1.6 0.00 0.00 0.00 67 1015.6
20260906041503 16 44 0.0 3.2 0.00 0.00 0.00 65 1015.6
20260906040002 17 44 0.0 1.6 0.00 0.00 0.00 63 1015.5
20260906034501 17 44 0.0 3.2 0.00 0.00 0.00 60 1015.4
20260906033002 18 75 1.6 3.2 0.00 0.00 0.00 58 1015.3
20260906031503 18 174 0.0 1.6 0.00 0.00 0.00 55 1015.2
20260906030001 20 174 0.0 1.6 0.00 0.00 0.00 52 1014.9
20260906024501 21 174 0.0 1.6 0.00 0.00 0.00 47 1015.0
20260906023008 22 174 0.0 0.0 0.00 0.00 0.00 44 1015.0
20260906021502 22 174 0.0 3.2 0.00 0.00 0.00 42 1015.0
20260906020001 23 150 0.0 3.2 0.00 0.00 0.00 42 1015.1
20260906014502 23 177 0.0 3.2 0.00 0.00 0.00 39 1015.0
20260906013002 23 208 1.6 3.2 0.00 0.00 0.00 39 1015.1
20260906011502 23 268 0.0 3.2 0.00 0.00 0.00 38 1015.2
20260906010002 24 143 1.6 4.8 0.00 0.00 0.00 37 1015.2
20260906004502 24 220 1.6 4.8 0.00 0.00 0.00 37 1015.4
20260906003002 25 217 0.0 4.8 0.00 0.00 0.00 37 1015.6
20260906001500 24 220 1.6 6.4 0.00 0.00 0.00 38 1015.6
20260906000002 24 133 1.6 6.4 0.00 0.00 0.00 37 1015.6
20260905234503 24 156 1.6 6.4 0.00 0.00 0.00 37 1015.6
20260905233005 25 183 1.6 4.8 0.00 0.00 0.00 36 1015.4
20260905231502 25 227 3.2 9.7 0.00 0.00 0.00 36 1015.6
20260905230002 25 185 3.2 6.4 0.00 0.00 0.00 35 1015.8
20260905224501 25 124 1.6 6.4 0.00 0.00 0.00 35 1016.2
20260905223002 25 129 1.6 11.3 0.00 0.00 0.00 34 1016.1
20260905221504 25 159 3.2 11.3 0.00 0.00 0.00 33 1016.2
20260905220002 26 268 1.6 6.4 0.00 0.00 0.00 34 1016.2
20260905214501 25 239 3.2 8.0 0.00 0.00 0.00 34 1016.3
20260905213002 23 150 1.6 12.9 0.00 0.00 0.00 34 1016.4
20260905211506 23 168 1.6 6.4 0.00 0.00 0.00 31 1016.5
20260905210002 23 107 1.6 6.4 0.00 0.00 0.00 36 1016.7
20260905204601 22 120 1.6 9.7 0.00 0.00 0.00 37 1016.8
20260905203103 22 216 1.6 8.0 0.00 0.00 0.00 40 1016.7
20260905201601 22 186 0.0 4.8 0.00 0.00 0.00 44 1016.8
20260905200107 22 71 1.6 6.4 0.00 0.00 0.00 46 1016.8
20260905200003 22 95 0.0 4.8 0.00 0.00 0.00 45 1016.8
20260905194502 22 192 3.2 6.4 0.00 0.00 0.00 46 1016.8
20260905193002 22 144 1.6 6.4 0.00 0.00 0.00 48 1016.8
20260905191500 22 240 3.2 6.4 0.00 0.00 0.00 49 1016.8
20260905190001 21 162 3.2 6.4 0.00 0.00 0.00 51 1016.7
20260905184506 21 198 4.8 8.0 0.00 0.00 0.00 51 1016.7
20260905183003 21 225 4.8 8.0 0.00 0.00 0.00 53 1016.5
20260905181501 21 260 3.2 8.0 0.00 0.00 0.00 53 1016.5
20260905180002 21 201 1.6 6.4 0.00 0.00 0.00 53 1016.5
20260905174501 21 150 1.6 12.9 0.00 0.00 0.00 53 1016.5
20260905173000 21 244 3.2 4.8 0.00 0.00 0.00 53 1016.4
20260905171501 21 165 3.2 6.4 0.00 0.00 0.00 53 1016.4
20260905170001 20 49 3.2 6.4 0.00 0.00 0.00 51 1016.4
20260905164504 19 81 0.0 6.4 0.00 0.00 0.00 58 1016.3
20260905163001 18 195 0.0 4.8 0.00 0.00 0.00 61 1016.3
20260905161502 17 204 0.0 3.2 0.00 0.00 0.00 66 1016.5
20260905160007 16 154 1.6 4.8 0.00 0.00 0.00 71 1016.4
20260905154501 16 213 0.0 3.2 0.00 0.00 0.00 77 1016.5
20260905153001 15 186 0.0 1.6 0.00 0.00 0.00 81 1016.5
20260905151502 13 186 0.0 1.6 0.00 0.00 0.00 82 1016.3
20260905150001 12 38 0.0 0.0 0.00 0.00 0.00 85 1016.4
20260905144559 10 27 0.0 0.0 0.00 0.00 0.00 90 1016.3
20260905143100 9 349 0.0 0.0 0.00 0.00 0.00 91 1016.3
20260905141601 9 349 0.0 0.0 0.00 0.00 0.00 91 1016.3
20260905134600 8 10 0.0 0.0 0.00 0.03 0.00 90 1016.0
20260905133101 9 6 0.0 0.0 0.00 0.03 0.00 90 1016.1
20260905131600 9 16 0.0 0.0 0.00 0.03 0.00 90 1016.0
20260905130059 9 35 0.0 0.0 0.00 0.03 0.00 89 1015.9
20260905130002 9 35 0.0 0.0 0.00 0.03 0.00 89 1015.9
20260905124501 9 35 0.0 0.0 0.00 0.03 0.00 90 1016.0
20260905123001 9 41 0.0 0.0 0.00 0.03 0.00 91 1016.0
20260905121501 9 25 0.0 0.0 0.00 0.03 0.00 92 1015.9
20260905120001 8 25 0.0 0.0 0.00 0.03 0.00 91 1016.0
20260905114600 8 25 0.0 0.0 0.00 0.05 0.00 91 1016.0
20260905113111 8 25 0.0 0.0 0.00 0.05 0.00 91 1016.0
20260905111600 8 25 0.0 0.0 0.00 0.05 0.00 90 1016.1
20260905110100 9 25 0.0 0.0 0.00 0.05 0.00 90 1016.0
20260905110003 9 25 0.0 0.0 0.00 0.05 0.00 90 1016.0
20260905104501 9 25 0.0 0.0 0.00 0.10 0.00 90 1016.1